FW0062 Weather Reports


Display with metric or nautical units.
time (UTC)temp
F
wind
direction
speed
MPH
gust
MPH
rain 1hr
in
rain 24hr
in
rain mn
in
humidity
%
barometer
mb
20190921131922 66 27 0.0 0.0 0.00 0.00 0.00 59 1013.8
20190921131415 66 27 0.0 0.0 0.00 0.00 0.00 58 1013.8
20190921130909 66 27 0.0 0.0 0.00 0.00 0.00 58 1014.2
20190921130401 67 27 0.0 0.0 0.00 0.00 0.00 57 1013.8
20190921125853 67 27 0.0 1.0 0.00 0.00 0.00 55 1014.2
20190921125348 68 26 0.0 1.0 0.00 0.00 0.00 54 1013.8
20190921124839 68 25 1.0 1.0 0.00 0.00 0.00 54 1013.8
20190921124332 68 26 0.0 1.0 0.00 0.00 0.00 53 1013.8
20190921123827 68 26 0.0 0.0 0.00 0.00 0.00 53 1013.8
20190921123319 68 26 0.0 0.0 0.00 0.00 0.00 52 1014.2
20190921122811 68 26 0.0 0.0 0.00 0.00 0.00 51 1013.8
20190921122306 69 26 0.0 0.0 0.00 0.00 0.00 50 1014.2
20190921121758 69 26 0.0 0.0 0.00 0.00 0.00 47 1013.8
20190921121251 69 26 0.0 0.0 0.00 0.00 0.00 47 1013.8
20190921120745 69 26 0.0 1.0 0.00 0.00 0.00 47 1014.2
20190921120237 69 26 0.0 1.0 0.00 0.00 0.00 46 1014.2
20190921115731 69 28 0.0 1.0 0.00 0.00 0.00 46 1013.8
20190921115224 69 28 0.0 1.0 0.00 0.00 0.00 46 1013.8
20190921114716 69 33 0.0 1.0 0.00 0.00 0.00 48 1013.5
20190921114209 69 40 0.0 0.0 0.00 0.00 0.00 48 1013.8
20190921113703 69 40 0.0 1.0 0.00 0.00 0.00 47 1013.8
20190921113154 69 38 0.0 1.0 0.00 0.00 0.00 46 1013.5
20190921112646 69 57 0.0 1.0 0.00 0.00 0.00 47 1013.8
20190921112139 69 57 0.0 1.0 0.00 0.00 0.00 45 1013.8
20190921111631 70 58 0.0 2.0 0.00 0.00 0.00 44 1013.5
20190921111125 71 60 0.0 2.0 0.00 0.00 0.00 44 1013.8
20190921110618 69 3 0.0 0.0 0.00 0.00 0.00 46 1013.5
20190921110109 70 358 0.0 1.0 0.00 0.00 0.00 45 1013.5
20190921105603 70 358 0.0 2.0 0.00 0.00 0.00 45 1013.5
20190921105057 70 357 0.0 2.0 0.00 0.00 0.00 44 1013.8
20190921104550 70 353 2.0 2.0 0.00 0.00 0.00 45 1013.5
20190921104044 70 355 0.0 1.0 0.00 0.00 0.00 45 1013.5
20190921103538 70 355 0.0 1.0 0.00 0.00 0.00 44 1013.5
20190921103028 70 355 0.0 0.0 0.00 0.00 0.00 44 1013.5
20190921102522 70 355 0.0 0.0 0.00 0.00 0.00 43 1013.5
20190921102016 70 355 0.0 0.0 0.00 0.00 0.00 44 1013.5
20190921101510 71 355 0.0 1.0 0.00 0.00 0.00 43 1013.2
20190921101002 70 355 0.0 1.0 0.00 0.00 0.00 43 1013.2
20190921100456 70 355 0.0 0.0 0.00 0.00 0.00 44 1013.5
20190921095949 71 355 0.0 0.0 0.00 0.00 0.00 43 1013.2
20190921095442 71 355 0.0 0.0 0.00 0.00 0.00 42 1013.5
20190921094936 71 355 0.0 0.0 0.00 0.00 0.00 43 1013.2
20190921094430 71 355 0.0 1.0 0.00 0.00 0.00 43 1013.2
20190921093922 71 355 0.0 2.0 0.00 0.00 0.00 42 1013.2
20190921093416 71 355 0.0 2.0 0.00 0.00 0.00 40 1013.2
20190921092908 70 355 0.0 1.0 0.00 0.00 0.00 41 1013.2
20190921092401 71 355 0.0 1.0 0.00 0.00 0.00 41 1013.5
20190921091855 71 355 0.0 1.0 0.00 0.00 0.00 41 1013.2
20190921091348 71 355 0.0 1.0 0.00 0.00 0.00 40 1013.5
20190921090840 71 355 0.0 1.0 0.00 0.00 0.00 41 1013.2
20190921090629 70 355 0.0 0.0 0.00 0.00 0.00 40 1013.5
20190921085827 70 355 0.0 0.0 0.00 0.00 0.00 40 1013.5
20190921085317 71 355 0.0 0.0 0.00 0.00 0.00 40 1013.5
20190921084812 71 355 0.0 1.0 0.00 0.00 0.00 39 1013.2
20190921084303 71 355 0.0 1.0 0.00 0.00 0.00 39 1013.5
20190921083754 70 355 0.0 0.0 0.00 0.00 0.00 41 1013.2
20190921083249 70 354 0.0 0.0 0.00 0.00 0.00 40 1013.5
20190921082741 71 354 0.0 0.0 0.00 0.00 0.00 39 1013.5
20190921082232 71 354 0.0 0.0 0.00 0.00 0.00 40 1013.5
20190921081727 71 354 0.0 0.0 0.00 0.00 0.00 39 1013.5
20190921081219 70 354 0.0 0.0 0.00 0.00 0.00 42 1013.2
20190921080709 71 354 0.0 0.0 0.00 0.00 0.00 41 1013.2
20190921080205 71 354 0.0 0.0 0.00 0.00 0.00 40 1013.2
20190921075656 71 354 0.0 0.0 0.00 0.00 0.00 40 1013.5
20190921075150 71 354 0.0 0.0 0.00 0.00 0.00 39 1013.2
20190921074643 72 354 0.0 0.0 0.00 0.00 0.00 37 1013.5
20190921074136 72 354 0.0 0.0 0.00 0.00 0.00 36 1013.5
20190921073628 73 354 0.0 0.0 0.00 0.00 0.00 34 1013.2
20190921073123 75 354 0.0 1.0 0.00 0.00 0.00 33 1012.7
20190921072614 75 354 0.0 1.0 0.00 0.00 0.00 32 1013.2
20190921072108 75 354 0.0 1.0 0.00 0.00 0.00 30 1013.2
20190921071603 75 354 1.0 1.0 0.00 0.00 0.00 30 1012.7
20190921071053 75 354 0.0 1.0 0.00 0.00 0.00 31 1013.2
20190921070547 74 354 1.0 1.0 0.00 0.00 0.00 30 1012.7
20190921070044 73 354 0.0 1.0 0.00 0.00 0.00 35 1013.2
20190921065533 73 354 0.0 0.0 0.00 0.00 0.00 34 1013.2
20190921065025 74 354 0.0 0.0 0.00 0.00 0.00 33 1013.2
20190921064518 74 354 0.0 1.0 0.00 0.00 0.00 34 1013.2
20190921064009 75 354 0.0 2.0 0.00 0.00 0.00 32 1013.5
20190921063503 76 354 0.0 2.0 0.00 0.00 0.00 31 1012.7
20190921062956 74 354 0.0 1.0 0.00 0.00 0.00 33 1013.2
20190921062449 74 354 0.0 0.0 0.00 0.00 0.00 34 1013.2
20190921061942 74 354 0.0 1.0 0.00 0.00 0.00 33 1012.7
20190921061434 75 354 0.0 1.0 0.00 0.00 0.00 33 1013.2
20190921060927 75 353 0.0 0.0 0.00 0.00 0.00 32 1013.2
20190921060419 75 353 0.0 0.0 0.00 0.00 0.00 32 1013.2
20190921055914 75 353 0.0 0.0 0.00 0.00 0.00 32 1013.2
20190921055405 76 353 0.0 1.0 0.00 0.00 0.00 32 1012.7
20190921054859 76 353 0.0 1.0 0.00 0.00 0.00 30 1012.7
20190921054351 76 353 0.0 1.0 0.00 0.00 0.00 30 1012.7
20190921053842 76 353 0.0 0.0 0.00 0.00 0.00 31 1012.7
20190921053336 76 353 0.0 0.0 0.00 0.00 0.00 30 1013.2
20190921052829 77 346 0.0 2.0 0.00 0.00 0.00 30 1012.7
20190921052322 77 346 0.0 2.0 0.00 0.00 0.00 29 1012.4
20190921051814 78 346 1.0 2.0 0.00 0.00 0.00 28 1012.4
20190921051307 78 345 0.0 2.0 0.00 0.00 0.00 29 1012.4
20190921050800 78 353 1.0 2.0 0.00 0.00 0.00 28 1012.7
20190921050254 78 353 1.0 2.0 0.00 0.00 0.00 29 1012.7
20190921045745 78 352 1.0 3.0 0.00 0.00 0.00 30 1012.4
20190921045237 79 327 2.0 4.0 0.00 0.00 0.00 29 1012.4
20190921044731 79 336 2.0 4.0 0.00 0.00 0.00 29 1012.4
20190921044223 79 354 2.0 3.0 0.00 0.00 0.00 29 1012.4
20190921043715 79 357 1.0 2.0 0.00 0.00 0.00 29 1012.7
20190921043208 79 347 1.0 3.0 0.00 0.00 0.00 29 1012.4
20190921042703 80 346 1.0 4.0 0.00 0.00 0.00 29 1012.4
20190921042152 80 320 3.0 4.0 0.00 0.00 0.00 29 1012.1
20190921041647 80 346 1.0 3.0 0.00 0.00 0.00 29 1012.1
20190921041140 79 358 1.0 2.0 0.00 0.00 0.00 29 1012.1
20190921040632 79 353 1.0 2.0 0.00 0.00 0.00 29 1011.6
20190921040124 79 354 1.0 1.0 0.00 0.00 0.00 29 1011.6
20190921035617 79 354 0.0 1.0 0.00 0.00 0.00 29 1011.6
20190921035108 80 354 0.0 2.0 0.00 0.00 0.00 28 1011.6
20190921034602 80 342 1.0 2.0 0.00 0.00 0.00 27 1011.6
20190921034054 81 342 0.0 3.0 0.00 0.00 0.00 27 1011.3
20190921033547 81 344 0.0 3.0 0.00 0.00 0.00 27 1011.6
20190921033039 81 346 1.0 3.0 0.00 0.00 0.00 27 1011.3
20190921032533 81 345 1.0 2.0 0.00 0.00 0.00 27 1011.6
20190921032025 81 339 1.0 3.0 0.00 0.00 0.00 26 1011.3
20190921031517 81 337 1.0 3.0 0.00 0.00 0.00 26 1011.3
20190921031013 81 350 1.0 3.0 0.00 0.00 0.00 26 1011.3
20190921030504 81 328 1.0 3.0 0.00 0.00 0.00 26 1011.3
20190921025956 82 349 1.0 3.0 0.00 0.00 0.00 26 1010.9
20190921025449 82 337 2.0 3.0 0.00 0.00 0.00 25 1010.9
20190921024942 82 346 2.0 4.0 0.00 0.00 0.00 25 1010.6
20190921024434 83 335 2.0 4.0 0.00 0.00 0.00 24 1010.9
20190921023928 83 333 2.0 4.0 0.00 0.00 0.00 24 1010.6
20190921023420 84 358 2.0 4.0 0.00 0.00 0.00 23 1010.6
20190921022911 84 337 1.0 4.0 0.00 0.00 0.00 23 1010.9
20190921022405 85 331 2.0 4.0 0.00 0.00 0.00 22 1010.6
20190921021856 85 263 4.0 4.0 0.00 0.00 0.00 22 1010.6
20190921021350 85 329 1.0 4.0 0.00 0.00 0.00 22 1010.6
20190921020843 86 316 1.0 6.0 0.00 0.00 0.00 21 1010.2
20190921020336 86 295 4.0 7.0 0.00 0.00 0.00 21 1010.2
20190921015828 87 260 3.0 7.0 0.00 0.00 0.00 21 1010.2
20190921015322 87 331 4.0 7.0 0.00 0.00 0.00 21 1010.2
20190921014815 87 334 2.0 8.0 0.00 0.00 0.00 21 1009.8
20190921014306 87 283 3.0 9.0 0.00 0.00 0.00 21 1010.2
20190921013800 87 330 3.0 9.0 0.00 0.00 0.00 21 1010.2
20190921013252 88 312 2.0 8.0 0.00 0.00 0.00 21 1009.8
20190921012743 88 281 5.0 8.0 0.00 0.00 0.00 20 1009.8
20190921012237 88 278 5.0 10.0 0.00 0.00 0.00 20 1009.8
20190921011731 88 294 3.0 10.0 0.00 0.00 0.00 20 1009.8
20190921011222 89 209 2.0 8.0 0.00 0.00 0.00 20 1009.8
20190921010717 89 319 3.0 9.0 0.00 0.00 0.00 20 1009.5
20190921010208 90 239 3.0 10.0 0.00 0.00 0.00 19 1009.5
20190921005700 90 317 3.0 10.0 0.00 0.00 0.00 19 1009.8
20190921005155 90 270 6.0 10.0 0.00 0.00 0.00 19 1009.8
20190921004646 91 319 5.0 11.0 0.00 0.00 0.00 19 1009.8
20190921004138 91 272 6.0 13.0 0.00 0.00 0.00 19 1009.5
20190921003632 91 348 3.0 13.0 0.00 0.00 0.00 19 1009.5
20190921003125 92 337 2.0 10.0 0.00 0.00 0.00 19 1009.8
20190921002616 92 290 4.0 14.0 0.00 0.00 0.00 19 1009.5
20190921002112 92 278 6.0 14.0 0.00 0.00 0.00 19 1009.8
20190921001603 92 325 4.0 9.0 0.00 0.00 0.00 20 1009.5
20190921001054 93 295 4.0 11.0 0.00 0.00 0.00 19 1009.5
20190921000548 92 300 3.0 11.0 0.00 0.00 0.00 19 1009.8
20190921000041 92 272 5.0 10.0 0.00 0.00 0.00 18 1009.8
20190920235532 93 330 4.0 10.0 0.00 0.00 0.00 19 1009.5
20190920235027 93 304 6.0 10.0 0.00 0.00 0.00 19 1009.8
20190920234518 93 260 8.0 10.0 0.00 0.00 0.00 19 1009.8
20190920234010 94 311 6.0 9.0 0.00 0.00 0.00 19 1009.8
20190920233506 95 243 2.0 9.0 0.00 0.00 0.00 18 1009.8
20190920232956 94 334 6.0 9.0 0.00 0.00 0.00 19 1009.5
20190920232450 95 281 3.0 10.0 0.00 0.00 0.00 18 1009.5
20190920231943 94 328 3.0 13.0 0.00 0.00 0.00 18 1010.2
20190920231434 94 256 2.0 13.0 0.00 0.00 0.00 18 1009.8
20190920230926 95 297 3.0 11.0 0.00 0.00 0.00 18 1009.8
20190920230420 94 233 3.0 11.0 0.00 0.00 0.00 19 1009.8
20190920225912 95 210 7.0 15.0 0.00 0.00 0.00 18 1009.5
20190920225405 95 344 4.0 15.0 0.00 0.00 0.00 19 1009.8
20190920224859 96 19 2.0 13.0 0.00 0.00 0.00 18 1010.2
20190920224349 96 81 1.0 9.0 0.00 0.00 0.00 19 1009.8
20190920223842 95 291 4.0 9.0 0.00 0.00 0.00 20 1009.8
20190920223337 97 241 2.0 8.0 0.00 0.00 0.00 19 1009.8
20190920222828 96 206 2.0 9.0 0.00 0.00 0.00 19 1010.2
20190920222319 96 216 5.0 9.0 0.00 0.00 0.00 19 1009.8
20190920221814 97 355 1.0 9.0 0.00 0.00 0.00 18 1010.2
20190920221305 97 162 2.0 7.0 0.00 0.00 0.00 18 1009.8
20190920220759 95 168 2.0 9.0 0.00 0.00 0.00 19 1010.2
20190920220253 96 97 2.0 10.0 0.00 0.00 0.00 18 1010.2
20190920215743 96 273 3.0 10.0 0.00 0.00 0.00 18 1010.2
20190920215237 97 75 2.0 9.0 0.00 0.00 0.00 18 1010.2
20190920214730 97 342 3.0 9.0 0.00 0.00 0.00 18 1010.2
20190920214222 97 105 5.0 8.0 0.00 0.00 0.00 18 1010.2
20190920213714 97 268 3.0 11.0 0.00 0.00 0.00 18 1010.2
20190920213211 97 194 4.0 9.0 0.00 0.00 0.00 18 1010.6
20190920212700 96 186 2.0 9.0 0.00 0.00 0.00 17 1010.6
20190920212153 98 213 3.0 13.0 0.00 0.00 0.00 17 1010.2
20190920211646 98 304 3.0 13.0 0.00 0.00 0.00 17 1010.2
20190920211138 98 177 3.0 7.0 0.00 0.00 0.00 18 1010.2
20190920210630 97 249 2.0 11.0 0.00 0.00 0.00 18 1010.2
20190920210125 98 160 3.0 11.0 0.00 0.00 0.00 17 1010.6
20190920205616 97 9 1.0 8.0 0.00 0.00 0.00 18 1010.2
20190920205109 97 240 3.0 8.0 0.00 0.00 0.00 18 1010.9
20190920204603 97 183 2.0 8.0 0.00 0.00 0.00 18 1010.9
20190920204054 98 177 1.0 10.0 0.00 0.00 0.00 18 1010.6
20190920203548 96 303 5.0 16.0 0.00 0.00 0.00 18 1010.9
20190920203041 96 287 5.0 16.0 0.00 0.00 0.00 17 1010.9
20190920202532 96 90 3.0 15.0 0.00 0.00 0.00 18 1010.9
20190920202025 96 165 2.0 15.0 0.00 0.00 0.00 18 1010.9
20190920201518 96 355 9.0 11.0 0.00 0.00 0.00 18 1010.9
20190920201010 96 327 2.0 11.0 0.00 0.00 0.00 18 1011.3
20190920200503 96 319 2.0 11.0 0.00 0.00 0.00 18 1011.3
20190920195956 97 265 2.0 9.0 0.00 0.00 0.00 18 1010.9
20190920195448 95 296 2.0 10.0 0.00 0.00 0.00 18 1011.3
20190920194940 96 127 5.0 10.0 0.00 0.00 0.00 17 1011.3
20190920194434 96 155 5.0 10.0 0.00 0.00 0.00 18 1011.6
20190920193927 96 52 1.0 16.0 0.00 0.00 0.00 17 1011.6
20190920193419 96 93 3.0 16.0 0.00 0.00 0.00 18 1011.6
20190920192912 96 172 2.0 14.0 0.00 0.00 0.00 18 1011.6
20190920192405 96 169 4.0 14.0 0.00 0.00 0.00 18 1012.1
20190920191857 95 231 9.0 13.0 0.00 0.00 0.00 18 1012.1
20190920191349 95 24 2.0 10.0 0.00 0.00 0.00 18 1012.1
20190920190841 96 63 6.0 10.0 0.00 0.00 0.00 18 1012.1
20190920190336 95 40 0.0 9.0 0.00 0.00 0.00 19 1012.1
20190920185828 94 196 7.0 9.0 0.00 0.00 0.00 19 1012.1
20190920185322 94 178 3.0 8.0 0.00 0.00 0.00 18 1012.1
20190920184813 94 186 4.0 11.0 0.00 0.00 0.00 19 1011.6
20190920184307 93 171 6.0 11.0 0.00 0.00 0.00 20 1012.1
20190920183757 93 75 2.0 10.0 0.00 0.00 0.00 20 1012.1
20190920183250 92 195 2.0 10.0 0.00 0.00 0.00 20 1012.4
20190920182744 92 90 2.0 8.0 0.00 0.00 0.00 21 1012.1
20190920182236 93 225 4.0 6.0 0.00 0.00 0.00 20 1012.4
20190920181730 93 225 2.0 7.0 0.00 0.00 0.00 20 1012.4
20190920181223 93 75 1.0 10.0 0.00 0.00 0.00 20 1012.1
20190920180715 93 128 5.0 10.0 0.00 0.00 0.00 21 1012.4
20190920180207 92 87 2.0 6.0 0.00 0.00 0.00 21 1012.4
20190920175700 91 160 4.0 6.0 0.00 0.00 0.00 21 1012.4
20190920175153 90 162 2.0 6.0 0.00 0.00 0.00 22 1012.7
20190920174648 91 102 2.0 8.0 0.00 0.00 0.00 22 1012.7
20190920174141 89 108 2.0 8.0 0.00 0.00 0.00 22 1012.7
20190920173633 90 110 3.0 7.0 0.00 0.00 0.00 21 1012.4
20190920173125 89 73 2.0 9.0 0.00 0.00 0.00 22 1012.7
20190920172620 89 175 1.0 9.0 0.00 0.00 0.00 23 1012.4
20190920172111 88 184 3.0 8.0 0.00 0.00 0.00 22 1012.4
20190920171604 89 166 4.0 10.0 0.00 0.00 0.00 22 1013.2
20190920171059 89 91 7.0 10.0 0.00 0.00 0.00 21 1012.7
20190920170550 88 188 1.0 8.0 0.00 0.00 0.00 22 1012.7
20190920170044 87 110 4.0 9.0 0.00 0.00 0.00 21 1012.7
20190920165537 88 151 2.0 9.0 0.00 0.00 0.00 22 1012.7
20190920165029 87 212 4.0 8.0 0.00 0.00 0.00 22 1012.7
20190920164520 88 186 2.0 8.0 0.00 0.00 0.00 22 1012.7
20190920164014 88 137 1.0 8.0 0.00 0.00 0.00 22 1012.7
20190920163505 87 170 3.0 9.0 0.00 0.00 0.00 22 1012.4
20190920162958 86 106 5.0 9.0 0.00 0.00 0.00 22 1012.7
20190920162453 87 166 1.0 8.0 0.00 0.00 0.00 22 1012.7
20190920161943 86 77 1.0 9.0 0.00 0.00 0.00 22 1012.7
20190920161437 87 91 3.0 9.0 0.00 0.00 0.00 22 1012.7
20190920160931 86 90 1.0 7.0 0.00 0.00 0.00 24 1012.4
20190920160423 85 91 0.0 7.0 0.00 0.00 0.00 25 1012.7
20190920155915 84 194 4.0 6.0 0.00 0.00 0.00 25 1012.4
20190920155411 84 174 2.0 4.0 0.00 0.00 0.00 26 1012.4
20190920154902 84 68 2.0 4.0 0.00 0.00 0.00 28 1012.7
20190920154354 83 179 2.0 3.0 0.00 0.00 0.00 29 1012.1
20190920153849 82 49 1.0 4.0 0.00 0.00 0.00 30 1012.4
20190920153340 82 143 2.0 4.0 0.00 0.00 0.00 31 1012.4
20190920152834 81 81 1.0 2.0 0.00 0.00 0.00 32 1012.4
20190920152327 80 75 0.0 2.0 0.00 0.00 0.00 31 1012.1
20190920151820 78 72 0.0 1.0 0.00 0.00 0.00 33 1012.1
20190920151312 78 66 0.0 2.0 0.00 0.00 0.00 32 1012.1
20190920150805 75 75 0.0 2.0 0.00 0.00 0.00 34 1012.1
20190920150258 74 74 1.0 2.0 0.00 0.00 0.00 36 1012.4
20190920145752 74 69 1.0 2.0 0.00 0.00 0.00 37 1012.1
20190920145244 73 49 1.0 2.0 0.00 0.00 0.00 38 1012.1
20190920144736 73 62 1.0 2.0 0.00 0.00 0.00 38 1012.1
20190920144229 73 63 1.0 2.0 0.00 0.00 0.00 38 1012.1
20190920143723 72 81 0.0 2.0 0.00 0.00 0.00 39 1012.1
20190920143215 72 85 1.0 2.0 0.00 0.00 0.00 40 1012.1
20190920142707 72 83 1.0 2.0 0.00 0.00 0.00 40 1012.1
20190920142201 72 82 0.0 2.0 0.00 0.00 0.00 39 1011.6
20190920141651 71 85 1.0 3.0 0.00 0.00 0.00 39 1012.1
20190920141147 71 77 0.0 3.0 0.00 0.00 0.00 39 1011.6
20190920140639 69 66 0.0 1.0 0.00 0.00 0.00 42 1012.1
20190920140132 68 60 0.0 1.0 0.00 0.00 0.00 43 1011.6
20190920135624 67 62 1.0 1.0 0.00 0.00 0.00 44 1011.6
20190920135117 66 61 1.0 1.0 0.00 0.00 0.00 45 1011.3
20190920134608 64 57 0.0 2.0 0.00 0.00 0.00 48 1011.3
20190920134102 64 54 0.0 2.0 0.00 0.00 0.00 51 1011.3
20190920133554 66 78 1.0 3.0 0.00 0.00 0.00 48 1011.3
20190920133046 66 76 1.0 3.0 0.00 0.00 0.00 47 1011.3
20190920132539 64 80 0.0 2.0 0.00 0.00 0.00 50 1011.3
20190920132032 64 76 1.0 2.0 0.00 0.00 0.00 51 1010.9